Salina, KS

10:38 AM CST on December 05, 2016 (GMT -0600)
Salina Municipal

Weather History for KSLN - October, 2013

Change the Weather History Date:

Saturday, October 19, 2013

  Actual Average Record
Temperature  
Mean Temperature 49 °F 56 °F  
Max Temperature 68 °F 68 °F 88 °F (1894)
Min Temperature 29 °F 45 °F 22 °F (1925)
Degree Days  
Heating Degree Days 16 9  
Month to date heating degree days 130 131  
Since 1 July heating degree days 142 183  
Cooling Degree Days 0 1  
Month to date cooling degree days 55 30  
Year to date cooling degree days 1750 1642  
Moisture  
Dew Point 35 °F    
Average Humidity 60    
Maximum Humidity 92    
Minimum Humidity 27    
Precipitation  
Precipitation 0.00 in 0.08 in 0.64 in (2005)
Month to date precipitation 0.80 1.55  
Year to date precipitation 28.67 28.59  
Sea Level Pressure  
Sea Level Pressure 30.01 in    
Wind  
Wind Speed 8 mph (SW)    
Max Wind Speed 20 mph    
Max Gust Speed 25 mph    
Visibility 10 miles    
Events      
T = Trace of Precipitation, MM = Missing Value Source: NWS Daily Summary

Daily Weather History Graph

Daily Weather History Graph

Search for Another Location

Airport or City:

Trip Planner

Search our weather history database for the weather conditions in past years. The results will help you decide how hot, cold, wet, or windy it might be!

Date:

Astronomy

Oct. 19, 2013 Rise Set
Actual Time 7:44 AM CDT 6:46 PM CDT
Civil Twilight 7:17 AM CDT 7:13 PM CDT
Nautical Twilight 6:46 AM CDT 7:44 PM CDT
Astronomical Twilight 6:15 AM CDT 8:14 PM CDT
Moon 7:15 PM CDT (10/19) 8:22 AM CDT (10/19)
Length of Visible Light 11h 55m
Length of Day
11h 01m
Waxing Gibbous, 99% of the Moon is Illuminated
Oct 19
Waxing Gibbous
Oct 26
Last Quarter
Nov 3
New
Nov 9
First Quarter
Nov 17
Full

Hourly Weather History & Observations

Time (CDT) Temp. Windchill Dew Point Humidity Pressure Visibility Wind Dir Wind Speed Gust Speed Precip Events Conditions
12:53 AM 34.0 °F - 30.9 °F 89% 30.13 in 10.0 mi Calm Calm - N/A   Clear
1:53 AM 34.0 °F 27.2 °F 30.9 °F 89% 30.12 in 10.0 mi SSW 8.1 mph - N/A   Clear
2:53 AM 34.0 °F 29.8 °F 30.9 °F 89% 30.11 in 10.0 mi SSW 4.6 mph - N/A   Clear
3:53 AM 34.0 °F - 30.9 °F 89% 30.10 in 10.0 mi Calm Calm - N/A   Clear
4:53 AM 33.1 °F 28.7 °F 30.0 °F 89% 30.09 in 10.0 mi SSW 4.6 mph - N/A   Clear
5:53 AM 35.1 °F - 30.0 °F 82% 30.09 in 10.0 mi Calm Calm - N/A   Clear
6:53 AM 34.0 °F 31.0 °F 30.0 °F 85% 30.09 in 10.0 mi WSW 3.5 mph - N/A   Clear
7:53 AM 30.9 °F 26.2 °F 28.0 °F 89% 30.09 in 10.0 mi SSW 4.6 mph - N/A   Clear
8:53 AM 35.1 °F 29.3 °F 30.9 °F 85% 30.08 in 10.0 mi SSW 6.9 mph - 0.01 in   Clear
9:53 AM 42.1 °F 36.6 °F 34.0 °F 73% 30.08 in 10.0 mi WSW 9.2 mph - N/A   Clear
10:53 AM 48.0 °F - 36.0 °F 63% 30.07 in 10.0 mi West 10.4 mph - N/A   Clear
11:53 AM 54.0 °F - 37.9 °F 55% 30.04 in 10.0 mi WSW 12.7 mph - N/A   Clear
12:53 PM 60.1 °F - 37.0 °F 42% 30.00 in 10.0 mi SW 18.4 mph - N/A   Clear
1:53 PM 62.1 °F - 37.0 °F 39% 29.98 in 10.0 mi WSW 12.7 mph - N/A   Clear
2:53 PM 66.0 °F - 36.0 °F 33% 29.95 in 10.0 mi WSW 15.0 mph 18.4 mph N/A   Clear
3:53 PM 66.9 °F - 34.0 °F 30% 29.93 in 10.0 mi West 15.0 mph 24.2 mph N/A   Clear
4:53 PM 68.0 °F - 34.0 °F 28% 29.91 in 10.0 mi WSW 13.8 mph - N/A   Clear
5:53 PM 66.0 °F - 37.0 °F 34% 29.91 in 10.0 mi WSW 8.1 mph - N/A   Clear
6:53 PM 55.9 °F - 41.0 °F 57% 29.91 in 10.0 mi SSW 6.9 mph - N/A   Clear
7:53 PM 51.1 °F - 41.0 °F 68% 29.91 in 10.0 mi SSW 8.1 mph - N/A   Clear
8:53 PM 48.0 °F - 39.9 °F 74% 29.91 in 10.0 mi SSW 8.1 mph - N/A   Clear
9:53 PM 45.0 °F - 39.0 °F 80% 29.91 in 10.0 mi North - - N/A   Clear
10:53 PM 43.0 °F 38.2 °F 37.9 °F 82% 29.91 in 10.0 mi South 8.1 mph - N/A   Clear
11:53 PM 43.0 °F 38.2 °F 37.9 °F 82% 29.89 in 10.0 mi South 8.1 mph - N/A   Clear